Regional Weather Roundup
Issued by NWS Northern Indiana

Home | Current Version | Previous Version | Graphics & Text | Print | Product List | Glossary On
Versions: 1 2 3 4 5 6 7 8 9 10 11 12 13 14 15 16 17 18 19 20 21 22 23 24 25 26 27 28 29 30 31 32 33 34 35 36 37 38 39 40 41 42 43 44 45 46 47 48 49 50
000
ASUS43 KIWX 301300
RWRIWX

KIWX WEATHER ROUNDUP
NATIONAL WEATHER SERVICE NORTHERN INDIANA
900 AM EDT TUE SEP 30 2014

NOTE: "FAIR" INDICATES FEW OR NO CLOUDS BELOW 12,000 FEET WITH NO
SIGNIFICANT WEATHER AND/OR OBSTRUCTIONS TO VISIBILITY.

* THESE STATIONS ARE NOT UNDER NWS QUALITY CONTROL. THEY ALSO MAY NOT
  REPORT WEATHER SUCH AS PRECIPITATION OR FOG.

INZ001>027-301400-
NORTHERN INDIANA

CITY           SKY/WX    TMP DP  RH WIND       PRES   REMARKS
GARY*          CLOUDY    55  50  82 N12G23    30.04
SOUTH BEND     NOT AVBL
WARSAW*        CLOUDY    48  45  87 N9        30.01R
ANGOLA*        CLOUDY    46  46 100 N7        29.99S
FORT WAYNE     CLOUDY    52  50  93 N10       29.99R
PERU/GRISSOM   CLOUDY    54  54 100 NW8       29.99S

$$
INZ028>050-301400-
CENTRAL INDIANA

CITY           SKY/WX    TMP DP  RH WIND       PRES   REMARKS
LAFAYETTE      CLOUDY    54  50  86 N8        30.00S
KOKOMO*        CLOUDY    54  48  82 N9        29.99S
MUNCIE*        CLOUDY    58  55  90 NW6       29.97R
INDIANAPOLIS   CLOUDY    58  55  90 N9        29.98R

$$
MIZ043>046-050>051-056>058-064>065-071>073-077>080-301400-
SOUTHWEST LOWER MICHIGAN

CITY           SKY/WX    TMP DP  RH WIND       PRES   REMARKS
BATTLE CREEK   CLOUDY    49  46  90 N8        30.00S
COLDWATER*     CLOUDY    50  48  92 N6        29.99S
HILLSDALE*     CLOUDY    50  50  98 NW7       29.97F
GRAND RAPIDS   CLOUDY    49  47  93 NW8       30.02R
KALAMAZOO      CLOUDY    49  46  90 N9        30.01S
STURGIS*       CLOUDY    46  46 100 NW8       30.00R
THREE RIVERS*  DRIZZLE   48  46  93 N3        30.02S

$$
OHZ001>008-015>018-024>025-301400-
NORTHWEST OHIO

CITY           SKY/WX    TMP DP  RH WIND       PRES   REMARKS
DEFIANCE       CLOUDY    51  47  86 N10       29.99R
FINDLAY        CLOUDY    57  54  89 N15       29.94S
TOLEDO EXPRESS CLOUDY    50  49  96 N9        29.97R
TOLEDO METCALF CLOUDY    53  49  86 NW8       29.97R
LIMA           CLOUDY    59  57  93 NW8       29.96R

$$
AND FOR LAKE MICHIGAN COASTAL AND OPEN LAKE BUOY OBSERVATIONS

STATION/POSITION TEMP    WIND        PRES    VSBY  WAVE
                 AIR SEA DIR/SP/G                  HT/PER
                 (F)     (DEG/KT/KT) (MB)    (MI)  (FT/S)
CALUMET HARBOR    54      10/ 10/ 17 1015.8S
MICHIGAN CITY     54     350/ 18/ 22   N/A
SAINT JOSEPH      51      CALM  / 20 1016.6F
SOUTH LAKE BUOY   52 61  350/ 16/ 19 1017.0R         7/ 8
4 MI NW BRIDGMAN  54 62   10/ 16/ 23   N/A           6/ 2
MICHIGAN CITY     55 65   30/ 14/ 19   N/A           7/ 2
SAINT JOSEPH CG                      1016.1      6   2

$$
&&


USA.gov is the U.S. government's official web portal to all federal, state and local government web resources and services.